TimePDT,TemperatureF,Dew PointF,Humidity,Sea Level PressureIn,VisibilityMPH,Wind Direction,Wind SpeedMPH,Gust SpeedMPH,PrecipitationIn,Events,Conditions,WindDirDegrees,DateUTC
12:54 AM,45.0,43.0,93,30.19,10.0,South,4.6,-,N/A,,Clear,190,2013-04-26 07:54:00
1:54 AM,45.0,43.0,93,30.20,10.0,Calm,Calm,-,N/A,,Clear,0,2013-04-26 08:54:00
2:54 AM,42.1,39.9,92,30.21,10.0,SW,4.6,-,N/A,,Clear,230,2013-04-26 09:54:00
3:54 AM,42.1,39.9,92,30.22,10.0,Calm,Calm,-,N/A,,Clear,0,2013-04-26 10:54:00
4:27 AM,43.0,41.0,93,30.22,10.0,Calm,Calm,-,N/A,,Mostly Cloudy,0,2013-04-26 11:27:00
4:35 AM,41.0,41.0,100,30.22,10.0,Calm,Calm,-,N/A,,Mostly Cloudy,0,2013-04-26 11:35:00
4:54 AM,44.1,42.1,93,30.23,10.0,Calm,Calm,-,N/A,,Overcast,0,2013-04-26 11:54:00
5:54 AM,45.0,43.0,93,30.23,8.0,Calm,Calm,-,N/A,,Overcast,0,2013-04-26 12:54:00
6:35 AM,44.1,43.0,96,30.24,7.0,South,4.6,-,N/A,,Overcast,180,2013-04-26 13:35:00
6:54 AM,44.1,43.0,96,30.25,6.0,South,4.6,-,N/A,,Overcast,180,2013-04-26 13:54:00
7:12 AM,44.1,43.0,96,30.24,4.0,South,5.8,-,N/A,,Overcast,180,2013-04-26 14:12:00
7:21 AM,44.1,43.0,96,30.25,1.8,SSW,3.5,-,N/A,,Overcast,200,2013-04-26 14:21:00
7:38 AM,44.1,44.1,100,30.25,2.0,SSW,4.6,-,N/A,,Overcast,200,2013-04-26 14:38:00
7:54 AM,45.0,44.1,97,30.27,2.0,South,3.5,-,N/A,,Overcast,180,2013-04-26 14:54:00
8:20 AM,45.0,43.0,93,30.26,2.0,South,6.9,-,N/A,,Overcast,190,2013-04-26 15:20:00
8:54 AM,46.0,43.0,89,30.27,6.0,South,5.8,-,N/A,,Overcast,190,2013-04-26 15:54:00
9:54 AM,48.0,44.1,86,30.26,9.0,SW,5.8,-,N/A,,Overcast,230,2013-04-26 16:54:00
10:08 AM,50.0,45.0,83,30.25,9.0,SSW,5.8,-,N/A,,Scattered Clouds,210,2013-04-26 17:08:00
10:54 AM,55.0,46.0,72,30.26,9.0,South,6.9,-,N/A,,Clear,190,2013-04-26 17:54:00
11:54 AM,59.0,46.0,62,30.26,10.0,SSW,6.9,-,N/A,,Clear,210,2013-04-26 18:54:00
12:54 PM,63.0,46.9,56,30.25,9.0,Variable,5.8,-,N/A,,Clear,0,2013-04-26 19:54:00
1:54 PM,68.0,46.9,47,30.25,10.0,Variable,4.6,-,N/A,,Clear,0,2013-04-26 20:54:00
2:54 PM,71.1,39.9,32,30.24,10.0,Calm,Calm,-,N/A,,Clear,0,2013-04-26 21:54:00
3:54 PM,73.0,27.0,18,30.22,10.0,West,5.8,-,N/A,,Clear,270,2013-04-26 22:54:00
4:54 PM,72.0,32.0,23,30.21,10.0,SW,8.1,-,N/A,,Clear,230,2013-04-26 23:54:00
5:54 PM,73.0,30.0,20,30.20,10.0,West,9.2,-,N/A,,Clear,280,2013-04-27 00:54:00
6:54 PM,68.0,28.9,23,30.21,10.0,West,9.2,-,N/A,,Clear,260,2013-04-27 01:54:00
7:54 PM,63.0,28.0,27,30.22,10.0,West,3.5,-,N/A,,Clear,260,2013-04-27 02:54:00
8:54 PM,55.9,32.0,40,30.22,10.0,SSW,9.2,-,N/A,,Clear,200,2013-04-27 03:54:00
9:54 PM,53.1,34.0,48,30.23,10.0,SSW,4.6,-,N/A,,Clear,200,2013-04-27 04:54:00
10:54 PM,55.0,34.0,45,30.24,10.0,Calm,Calm,-,N/A,,Clear,0,2013-04-27 05:54:00
11:54 PM,51.8,35.6,54,30.23,10.0,Calm,Calm,-,N/A,,Clear,0,2013-04-27 06:54:00